Regional Weather Roundup
Issued by NWS

Home | Current Version | Previous Version | Text Only | Print | Product List | Glossary Off
Versions: 1 2 3 4 5 6 7 8 9 10 11 12 13 14 15 16 17 18 19 20 21 22 23 24 25 26 27 28 29 30 31 32 33 34 35 36 37 38 39 40 41 42 43 44 45 46 47 48 49 50

000
ASUS43 KMPX 020210
RWRMN
WEATHER ROUNDUP FOR MINNESOTA
NATIONAL WEATHER SERVICE TWIN CITIES/CHANHASSEN MN
900 PM CDT MON SEP 01 2014


NOTE: "FAIR" INDICATES FEW OR NO CLOUDS BELOW 12,000 FEET WITH NO
SIGNIFICANT WEATHER AND/OR OBSTRUCTIONS TO VISIBILITY. N/A MEANS
CURRENT SKY AND/OR WEATHER CONDITIONS ARE NOT AVAILABLE.

MNZ060>063-068>070-020300-
   Twin Cities Metro

CITY           SKY/WX    TMP DP  RH WIND       PRES   REMARKS
TWIN CITIES    PTCLDY    71  56  58 SW7       29.79R
ST PAUL        CLEAR     68  56  65 SW6       29.79R
CRYSTAL        CLEAR     69  56  62 SW5       29.78R
BLAINE         CLEAR     68  55  64 SW3       29.78R
LAKEVILLE      CLEAR     64  57  77 SW5       29.81S
EDEN PRAIRIE   CLEAR     67  58  72 SW3       29.79R
SOUTH ST PAUL  CLEAR     68  57  67 SW5       29.79S
LAKE ELMO      FAIR      63  55  77 SW3       29.80S
$$
MNZ001>005-007-008-013>017-022>024-027-028-020300-
   Northwest Minnesota

CITY           SKY/WX    TMP DP  RH WIND       PRES   REMARKS
BEMIDJI        MOCLDY    57  54  89 CALM      29.76R
HALLOCK        CLEAR     57  55  94 SW3       29.71R
ROSEAU         CLEAR     55  52  88 S5        29.72R
WARROAD        CLEAR     57  54  88 SW7       29.71S
THIEF RVR FALL CLEAR     57  54  88 CALM      29.75R
CROOKSTON      CLEAR     57  55  94 SW7       29.76R
FOSSTON        PTCLDY    54  52  94 S6        29.78R
DETROIT LAKES  PTCLDY    59  55  88 SE5       29.81R
MOORHEAD       PTCLDY    61  61 100 CALM      29.79R
PARK RAPIDS    CLOUDY    55  54  96 SW7       29.78R
MAHNOMEN       FAIR      55  54  95 SW6       29.78R
$$
MNZ006-009>011-018-025>026-020300-
   North Central Minnesota

CITY           SKY/WX    TMP DP  RH WIND       PRES   REMARKS
BAUDETTE       PTCLDY    58  52  80 W3        29.71S
FLAG ISLAND    CLEAR     63  55  77 SW8       29.68S
INTL FALLS     MOCLDY    56  53  90 CALM      29.71S
WASKISH        PTCLDY    54  52  94 CALM      29.74R
BIG FORK       PTCLDY    61  54  77 W3        29.74R
LONGVILLE      MOCLDY    57  55  94 SW5       29.76R
GRAND RAPIDS   PTCLDY    63  52  67 W3        29.75R
CRANE LAKE     CLEAR     52  50  93 CALM      29.72S
ORR            PTCLDY    55  52  88 CALM      29.70S
COOK           PTCLDY    55  52  88 CALM      29.73S
WALKER         FAIR      56  54  92 CALM      29.77R
$$
MNZ012-019>021-037-020300-
   Northeast Minnesota

CITY           SKY/WX    TMP DP  RH WIND       PRES   REMARKS
DULUTH         PTCLDY    58  51  78 W7        29.75R
ELY            CLEAR     55  52  88 CALM      29.72R
HIBBING        CLEAR     54  51  90 SW3       29.74R
EVELETH        PTCLDY    57  52  82 SW3       29.75R
DULUTH HARBOR  CLEAR     64  57  77 SW6       29.74R
TWO HARBORS    CLEAR     57  52  82 W3        29.72R
SILVER BAY     CLEAR     57  55  94 CALM      29.71R
GRAND MARAIS     N/A     60  57  89 W3        29.67R
G MARAIS ARPRT CLEAR     57  52  82 W6        29.71R
$$
MNZ029>031-032-039>041-046>048-054>057-064-020300-
   West Central Minnesota

CITY           SKY/WX    TMP DP  RH WIND       PRES   REMARKS
FERGUS FALLS   PTCLDY    61  52  72 CALM      29.80R
WHEATON        PTCLDY    61  55  82 SW6       29.82R
MORRIS         PTCLDY    63  55  77 W7        29.79R
ALEXANDRIA     PTCLDY    63  56  78 SW7       29.80R
ELBOW LAKE     FAIR      60  56  88 W7        29.79R
WADENA         LGT RAIN  54  52  94 S3        29.79S
GLENWOOD       PTCLDY    63  54  72 W7        29.81R
APPLETON       MOCLDY    66  57  72 NW7       29.80R
BENSON         MOCLDY    63  57  82 W7        29.80R
ORTONVILLE     RAIN      64  54  68 W15G29    29.83R
MADISON        CLOUDY    66  57  72 W5        29.82R
WILLMAR        FAIR      66  59  77 SW6       29.81R
$$
MNZ033>034-036-042>043-049>051-058-059-020300-
   Central Minnesota

CITY           SKY/WX    TMP DP  RH WIND       PRES   REMARKS
ST CLOUD       MOCLDY    69  58  67 W5        29.78R
SAUK CENTRE    FAIR      59  57  94 CALM      29.79R
PAYNESVILLE    MOCLDY    61  58  90 CALM      29.79S
AITKIN         PTCLDY    63  55  77 CALM      29.77R
PINE RIVER     CLOUDY    57  55  94 CALM      29.81S
BRAINERD       TSTM      58  53  84 W5        29.81R
STAPLES        LGT RAIN  55  54  94 S6        29.81S
LONG PRAIRIE   FAIR      57  55  94 CALM      29.80R
LITTLE FALLS   PTCLDY    59  54  82 CALM      29.79R
LITCHFIELD     PTCLDY    64  63  94 CALM      29.80S
BUFFALO        PTCLDY    67  58  72 S3        29.80R
MAPLE LAKE     PTCLDY    66  60  81 CALM      29.80R
$$
MNZ037-044-045-052-053-020300-
   East Central Minnesota

CITY           SKY/WX    TMP DP  RH WIND       PRES   REMARKS
PRINCETON      PTCLDY    64  57  77 CALM      29.78R
MORA           MOCLDY    64  55  72 CALM      29.79S
CAMBRIDGE      PTCLDY    64  55  72 CALM      29.77R
RUSH CITY      PTCLDY    60  57  91 CALM      29.78R
MOOSE LAKE     PTCLDY    55  54  94 CALM      29.75R
HINCKLEY       FAIR      61  57  88 CALM      29.77R
CLOQUET        PTCLDY    57  52  82 CALM      29.76R
MCGREGOR       PTCLDY    61  54  77 SW5       29.77R
$$
MNZ071>073-080-081-089-090-097-098-020300-
   Southwest Minnesota

CITY           SKY/WX    TMP DP  RH WIND       PRES   REMARKS
MONTEVIDEO     CLOUDY    66  57  72 CALM      29.81R
GRANITE FALLS  CLOUDY    65  58  76 SW9       29.82R
CANBY          CLOUDY    67  52  57 SW8       29.83R
MARSHALL       MOCLDY    64  55  72 W9        29.82R
REDWOOD FALLS  PTCLDY    68  58  70 SW8       29.81R
OLIVIA         MOCLDY    66  59  77 SW6       29.80R
PIPESTONE      PTCLDY    63  57  82 CALM      29.87R
WINDOM         CLEAR     64  57  77 W5        29.85S
WORTHINGTON    CLEAR     63  57  82 W6        29.88R
JACKSON        CLEAR     63  59  88 S6        29.86S
TRACY          PTCLDY    64  59  85 SW5       29.84R
SLAYTON        PTCLDY    62  57  83 CALM      29.87R
$$
MNZ065>067-074>077-082>085-091>093-020300-
   South Central Minnesota

CITY           SKY/WX    TMP DP  RH WIND       PRES   REMARKS
MANKATO        CLEAR     66  55  68 S7        29.82S
NEW ULM        CLEAR     66  61  82 SW5       29.82R
ST JAMES       CLEAR     64  61  88 S6        29.84R
FAIRMONT       CLEAR     61  55  82 S3        29.85R
GLENCOE        CLEAR     65  59  80 CALM      29.80R
FARIBAULT      CLEAR     64  57  77 CALM      29.83R
OWATONNA       CLEAR     63  57  82 SW6       29.84R
WASECA         CLEAR     59  54  82 S5        29.85R
ALBERT LEA     PTCLDY    64  59  82 CALM      29.85R
$$
MNZ078>079-086>088-094>096-020300-
   Southeast Minnesota

CITY           SKY/WX    TMP DP  RH WIND       PRES   REMARKS
ROCHESTER      PTCLDY    62  57  83 SW8       29.85R
RED WING       CLEAR     66  59  77 W3        29.80R
STANTON        CLEAR     64  58  82 S5        29.80S
DODGE CENTER   CLEAR     63  59  88 SW5       29.85R
WINONA         MOCLDY    70  57  64 CALM      29.81R
AUSTIN         PTCLDY    64  57  77 CALM      29.85R
PRESTON        MOCLDY    63  61  92 CALM      29.85R
$$
ABBREVIATIONS USED IN REMARKS
   TC - TEMPERATURES IN CELSIUS
  WCI - WIND CHILL INDEX
   HX - HEAT INDEX
  VSB - VISIBILITY
$$


USA.gov is the U.S. government's official web portal to all federal, state and local government web resources and services.